Simultaneous Nadir Overpasses (SNOs) Predictions

Prediction of SNOs between AURA and NPP Satellite Orbit:

Table of predicted SNOs for the next 14.0 days since TLE Epoch: 6/8/2017
Index Date (AURA) Time (AURA) Lat,Lon (AURA) SZA (AURA ) Date (NPP) Time (NPP) Lat,Lon (NPP) SZA (NPP ) Distance(km) Time Diff (sec)
1 06/09/2017 19:08:34 -79.16, -32.60 109.73 06/09/2017 19:07:40 -79.16, -32.70 109.67 2.07 54
2 06/09/2017 19:57:50 79.55, 137.57 69.71 06/09/2017 19:58:13 79.55, 137.71 69.67 2.78 23
3 06/12/2017 11:24:56 -79.39, 84.75 110.22 06/12/2017 11:24:28 -79.40, 84.90 110.23 3.19 28
4 06/12/2017 12:14:16 79.61,-106.08 69.45 06/12/2017 12:15:06 79.62,-105.98 69.40 1.94 50
5 06/15/2017 03:41:22 -79.46,-158.91 110.43 06/15/2017 03:41:21 -79.47,-158.79 110.45 2.62 1
6 06/17/2017 19:08:26 79.28, 148.12 69.79 06/17/2017 19:07:35 79.28, 148.23 69.81 2.38 51
7 06/17/2017 19:57:47 -79.52, -42.60 110.58 06/17/2017 19:58:13 -79.53, -42.48 110.62 2.60 26
8 06/20/2017 11:24:51 79.37, -95.38 69.64 06/20/2017 11:24:27 79.38, -95.24 69.63 2.95 24




NCC Satellite Simultaneous Nadir Overpasses (SNOs) Prediction Service
